Location: Hall+in+Tirol
(47.2830°N, 11.5170°E)
Time: 22:16:54
(UTC+01:00)

Amateur Radio Satellites - All Passes

Search period start: 20 November 2017 21:46
Search period end: 21 November 2017 21:46
Location: Hall+in+Tirol, 47.2830°N, 11.5170°E

Satellite Date Start Highest point End Downlink Frequencies (MHz)
Time Altitude Azimuth
UNISAT 6 20 Nov 21:51:24 21:55:35 48° 99° (E) 21:59:42 437.425
TIGRISAT 20 Nov 21:56:00 22:00:10 49° 99° (E) 22:04:16 435.000
O/OREOS (USA 219) 20 Nov 21:57:13 22:00:36 20° 49° (NE) 22:03:56 437.305
FO-29 20 Nov 21:59:53 22:07:23 50° 295° (WNW) 22:14:37 435.910
ISS 20 Nov 22:00:23 22:03:35 53° 149° (SSE) 22:06:48 437.550
NO-84 20 Nov 22:04:56 22:09:11 76° 217° (SW) 22:13:27 435.350 FM
SPROUT 20 Nov 22:23:44 22:26:06 15° 60° (ENE) 22:28:29 437.525
ESTCUBE 1 20 Nov 22:30:09 22:34:33 59° 72° (ENE) 22:38:59 437.505/2401.250
RS-15 20 Nov 22:38:48 22:49:59 37° 343° (NNW) 23:00:52 29.354- 29.394
nSIGHT-1 20 Nov 22:55:16 22:58:27 59° 341° (NNW) 23:01:38 .
VELOX 1 20 Nov 22:55:19 22:58:37 21° 62° (ENE) 23:01:56 145.980
PRISM 20 Nov 23:05:32 23:09:44 79° 286° (WNW) 23:13:53 437.425
LO-87 20 Nov 23:19:22 23:22:28 26° 264° (W) 23:25:34 145.935 - 145.965
DUCHIFAT 1 20 Nov 23:19:37 23:21:52 14° 90° (E) 23:24:07 145.980
SO-50 20 Nov 23:19:48 23:24:05 44° 315° (NW) 23:28:27 436.795
EO-79 20 Nov 23:25:15 23:28:27 21° 93° (E) 23:31:38 145.935-145.965
UNISAT 6 20 Nov 23:28:54 23:31:58 19° 298° (WNW) 23:35:00 437.425
NANOSAT C BR1 20 Nov 23:29:03 23:32:12 20° 93° (E) 23:35:19 145.865
PCSat 20 Nov 23:33:17 23:36:58 19° 106° (ESE) 23:40:39 145.827
TIGRISAT 20 Nov 23:33:30 23:36:31 19° 298° (WNW) 23:39:30 435.000
O/OREOS (USA 219) 20 Nov 23:35:55 23:40:26 62° 249° (WSW) 23:44:53 437.305
ISS 20 Nov 23:36:59 23:40:09 44° 348° (NNW) 23:43:19 437.550
POLYITAN 1 20 Nov 23:40:00 23:43:42 29° 96° (E) 23:47:21 437.675
NO-84 20 Nov 23:43:32 23:45:59 15° 234° (SW) 23:48:24 435.350 FM
DX 1 20 Nov 23:43:47 23:46:33 17° 60° (ENE) 23:49:20 434.975-435.025
FO-29 20 Nov 23:47:00 23:50:37 14° 316° (NW) 23:54:12 435.910
50 SAT 20 Nov 23:48:14 23:49:49 13° 63° (ENE) 23:51:24 437.505
AIST 2D 20 Nov 23:50:28 23:53:58 64° 285° (WNW) 23:57:28 435.315
SPROUT 20 Nov 23:57:11 00:01:27 70° 257° (WSW) 00:05:45 437.525
QB50P2 21 Nov 00:02:58 00:07:07 56° 101° (E) 00:11:15 145.880/145.840
ESTCUBE 1 21 Nov 00:08:53 00:11:44 16° 270° (W) 00:14:35 437.505/2401.250
BUGSAT 1 21 Nov 00:15:13 00:17:17 14° 89° (E) 00:19:20 437.445
UKube-1 21 Nov 00:26:21 00:29:58 26° 65° (ENE) 00:33:36 .
VELOX 1 21 Nov 00:30:26 00:34:44 49° 260° (W) 00:39:05 145.980
nSIGHT-1 21 Nov 00:32:02 00:35:02 35° 1° (N) 00:38:03 .
PRISM 21 Nov 00:43:57 00:44:15 10° 304° (NW) 00:44:32 437.425
DUCHIFAT 1 21 Nov 00:53:49 00:57:56 60° 287° (WNW) 01:02:01 145.980
RS-15 21 Nov 00:55:33 01:06:37 37° 17° (NNE) 01:17:12 29.354- 29.394
EO-79 21 Nov 01:00:26 01:04:23 40° 290° (WNW) 01:08:18 145.935-145.965
SO-50 21 Nov 01:03:29 01:05:42 13° 338° (NNW) 01:07:56 436.795
NANOSAT C BR1 21 Nov 01:04:08 01:08:04 41° 291° (WNW) 01:12:00 145.865
BEESAT 21 Nov 01:07:11 01:09:30 14° 56° (NE) 01:11:50 436.000
Oscar 19 21 Nov 01:07:21 01:11:50 29° 95° (E) 01:16:17 437.125/150
ISS 21 Nov 01:13:56 01:17:02 39° 7° (N) 01:20:09 437.550
PCSat 21 Nov 01:14:19 01:19:44 76° 305° (NW) 01:25:12 145.827
POLYITAN 1 21 Nov 01:15:47 01:19:25 29° 294° (WNW) 01:23:03 437.675
ITUPSAT 1 21 Nov 01:15:48 01:18:39 16° 58° (ENE) 01:21:29 437.325
DX 1 21 Nov 01:17:56 01:22:16 63° 258° (WSW) 01:26:39 434.975-435.025
50 SAT 21 Nov 01:18:27 01:21:33 42° 260° (W) 01:24:41 437.505
Gurwin Techsat 1B 21 Nov 01:27:09 01:31:54 32° 95° (E) 01:36:37 435.225
MOZHAYETS 4 21 Nov 01:33:22 01:37:05 25° 64° (ENE) 01:40:48
QB50P2 21 Nov 01:39:47 01:42:29 17° 299° (WNW) 01:45:11 145.880/145.840
BUGSAT 1 21 Nov 01:49:03 01:53:02 59° 288° (WNW) 01:56:58 437.445
UKube-1 21 Nov 02:01:54 02:05:50 35° 262° (W) 02:09:50 .
nSIGHT-1 21 Nov 02:08:25 02:11:36 67° 21° (NNE) 02:14:47 .
AO-7 21 Nov 02:28:23 02:34:33 22° 90° (E) 02:40:41 .
BEESAT 21 Nov 02:41:47 02:46:34 88° 68° (ENE) 02:51:22 436.000
Oscar 19 21 Nov 02:46:26 02:51:16 42° 293° (WNW) 02:56:06 437.125/150
BEESAT 3 21 Nov 02:49:47 02:53:28 37° 119° (ESE) 02:57:11 437.485
ISS 21 Nov 02:50:27 02:53:43 78° 208° (SSW) 02:56:59 437.550
ITUPSAT 1 21 Nov 02:51:05 02:55:52 78° 256° (WSW) 03:00:41 437.325
ITAMSAT 1 21 Nov 02:58:57 03:02:43 20° 91° (E) 03:06:27 435.822/435.867
PCSat 21 Nov 03:00:11 03:04:04 19° 327° (NNW) 03:07:58 145.827
M-CUBED/EXP-1 PRIME 21 Nov 03:05:44 03:10:12 60° 107° (ESE) 03:14:47 437.505
Gurwin Techsat 1B 21 Nov 03:06:58 03:11:55 40° 294° (WNW) 03:16:50 435.225
RS-15 21 Nov 03:09:23 03:21:27 74° 48° (NE) 03:32:49 29.354- 29.394
MOZHAYETS 4 21 Nov 03:09:44 03:14:02 40° 262° (W) 03:18:22
CUBESAT XI-V 21 Nov 03:19:17 03:23:49 64° 73° (ENE) 03:28:25 437.345
KKS-1 21 Nov 03:29:36 03:33:08 23° 63° (ENE) 03:36:42 437.445
nSIGHT-1 21 Nov 03:44:57 03:47:38 24° 219° (SW) 03:50:17 .
DOVE 4 21 Nov 03:52:00 03:54:07 12° 84° (E) 03:56:12 437.250
STARS 21 Nov 03:55:56 03:59:00 19° 61° (ENE) 04:02:03 437.465
BEESAT 2 21 Nov 03:59:33 04:03:30 57° 123° (ESE) 04:07:30 435.950
AO-7 21 Nov 04:19:57 04:28:22 89° 293° (WNW) 04:36:45 .
BEESAT 21 Nov 04:23:12 04:25:00 12° 273° (W) 04:26:48 436.000
BEESAT 3 21 Nov 04:27:31 04:31:04 29° 318° (NW) 04:34:38 437.485
SO-50 21 Nov 04:27:41 04:30:40 17° 28° (NNE) 04:33:40 436.795
ISS 21 Nov 04:27:55 04:29:45 14° 225° (SW) 04:31:34 437.550
AO-85 21 Nov 04:36:38 04:40:26 52° 122° (ESE) 04:44:24 145.980
ITAMSAT 1 21 Nov 04:37:27 04:42:37 62° 289° (WNW) 04:47:44 435.822/435.867
YUBILEINY 21 Nov 04:40:51 04:48:17 33° 82° (E) 04:55:46 435.215
M-CUBED/EXP-1 PRIME 21 Nov 04:40:54 04:44:12 20° 303° (WNW) 04:47:34 437.505
CUBESAT XI-V 21 Nov 04:58:52 05:01:38 16° 271° (W) 05:04:26 437.345
KKS-1 21 Nov 05:05:10 05:09:27 44° 261° (W) 05:13:46 437.445
RS-15 21 Nov 05:22:38 05:33:02 39° 253° (WSW) 05:42:58 29.354- 29.394
DOVE 4 21 Nov 05:27:20 05:32:37 86° 103° (ESE) 05:37:38 437.250
STARS 21 Nov 05:30:34 05:34:55 56° 259° (W) 05:39:18 437.465
KAITUO 1B 21 Nov 05:33:50 05:35:59 15° 91° (E) 05:38:07 145.475/437.950
BEESAT 2 21 Nov 05:38:18 05:41:32 23° 322° (NW) 05:44:49 435.950
STRAND 1 21 Nov 05:40:18 05:44:32 26° 62° (ENE) 05:48:46 437.568
XW-2D 21 Nov 05:46:40 05:49:59 28° 95° (E) 05:53:18 145.860 - 145.880
XW-2B 21 Nov 06:01:18 06:04:53 39° 98° (E) 06:08:28 145.730 - 145.750
CUTE-I 21 Nov 06:06:07 06:11:07 38° 97° (E) 06:16:04 437.470
SO-50 21 Nov 06:07:23 06:11:59 64° 49° (NE) 06:16:39 436.795
AO-7 21 Nov 06:13:40 06:20:09 26° 312° (NW) 06:26:40 .
AO-85 21 Nov 06:17:52 06:21:07 23° 323° (NW) 06:24:31 145.980
NUDT-PHONESAT 21 Nov 06:18:10 06:21:43 42° 98° (E) 06:25:16 437.300
ITAMSAT 1 21 Nov 06:19:36 06:21:04 11° 309° (NW) 06:22:31 435.822/435.867
CUTE 1.7 + AOD 2 21 Nov 06:21:53 06:24:53 18° 91° (E) 06:27:52 437.475
XW-2C 21 Nov 06:26:43 06:30:33 80° 103° (ESE) 06:34:21 145.795 - 145.815
LilacSat-2 21 Nov 06:28:10 06:32:01 89° 102° (ESE) 06:35:52 437.200
FO-29 21 Nov 06:30:37 06:36:17 28° 56° (NE) 06:42:25 435.910
PCSat 21 Nov 06:33:46 06:35:54 12° 20° (NNE) 06:38:01 145.827
YUBILEINY 21 Nov 06:35:50 06:44:30 64° 284° (WNW) 06:53:18 435.215
XW-2F 21 Nov 06:37:51 06:41:39 82° 285° (WNW) 06:45:27 145.980 - 146.000
HO-68 21 Nov 06:43:23 06:49:58 37° 96° (E) 06:56:30 435.675
SEEDS 21 Nov 06:52:51 06:56:18 24° 93° (E) 06:59:45 437.485
AAUSAT CUBESAT 2 21 Nov 07:01:55 07:04:00 13° 89° (E) 07:06:04 437.432
DOVE 4 21 Nov 07:06:22 07:09:32 16° 303° (WNW) 07:12:37 437.250
KAITUO 1B 21 Nov 07:06:35 07:10:14 48° 287° (WNW) 07:13:52 145.475/437.950
CUBEBUG 2 21 Nov 07:13:16 07:17:07 35° 96° (E) 07:20:55 437.445
STRAND 1 21 Nov 07:18:28 07:23:27 48° 261° (W) 07:28:27 437.568
AO-73 21 Nov 07:19:09 07:20:22 11° 88° (E) 07:21:36 145.935
XW-2D 21 Nov 07:20:55 07:24:04 25° 293° (WNW) 07:27:14 145.860 - 145.880
Oscar 11 21 Nov 07:35:36 07:37:23 12° 88° (E) 07:39:09 .
XW-2B 21 Nov 07:36:05 07:38:48 19° 295° (WNW) 07:41:32 145.730 - 145.750
XW-2A 21 Nov 07:46:16 07:49:27 39° 98° (E) 07:52:39 145.665 - 145.685
CUTE-I 21 Nov 07:46:17 07:51:07 35° 296° (WNW) 07:55:54 437.470
SO-50 21 Nov 07:48:42 07:52:02 20° 247° (WSW) 07:55:24 436.795
NUDT-PHONESAT 21 Nov 07:52:50 07:55:16 17° 296° (WNW) 07:57:42 437.300
CUTE 1.7 + AOD 2 21 Nov 07:56:51 08:00:58 48° 289° (WNW) 08:05:04 437.475
ZACube-1 21 Nov 08:01:55 08:05:45 35° 97° (E) 08:09:35 437.345
XW-2C 21 Nov 08:03:14 08:04:08 11° 300° (WNW) 08:05:01 145.795 - 145.815
UWE-3 21 Nov 08:10:41 08:14:51 82° 103° (ESE) 08:18:59 435.000/436.395/437.385
FO-29 21 Nov 08:13:54 08:20:35 73° 258° (WSW) 08:28:08 435.910
PCSat 21 Nov 08:16:02 08:21:00 35° 44° (NE) 08:25:56 145.827
PRISM 21 Nov 08:24:37 08:26:38 13° 59° (ENE) 08:28:38 437.425
SEEDS 21 Nov 08:28:10 08:32:04 36° 291° (WNW) 08:35:58 437.485
HO-68 21 Nov 08:30:59 08:37:54 51° 296° (WNW) 08:44:45 435.675
AAUSAT CUBESAT 2 21 Nov 08:35:42 08:39:52 64° 286° (WNW) 08:44:00 437.432
YUBILEINY 21 Nov 08:38:23 08:43:27 16° 309° (NW) 08:48:34 435.215
CUBEBUG 2 21 Nov 08:50:13 08:53:36 24° 295° (WNW) 08:56:56 437.445
UNISAT 6 21 Nov 08:52:37 08:57:08 63° 73° (ENE) 09:01:34 437.425
AO-73 21 Nov 08:52:59 08:57:08 75° 284° (WNW) 09:01:17 145.935
TIGRISAT 21 Nov 08:57:03 09:01:34 64° 73° (ENE) 09:06:00 435.000
DELFI C3 21 Nov 09:09:34 09:12:53 24° 94° (E) 09:16:11 145.870
Oscar 11 21 Nov 09:09:42 09:14:02 75° 285° (WNW) 09:18:21 .
XW-2A 21 Nov 09:19:55 09:21:52 15° 296° (WNW) 09:23:48 145.665 - 145.685
BEESAT 3 21 Nov 09:26:46 09:28:48 13° 29° (NNE) 09:30:50 437.485
ZACube-1 21 Nov 09:38:33 09:41:53 24° 295° (WNW) 09:45:13 437.345
UWE-3 21 Nov 09:49:09 09:50:41 12° 302° (WNW) 09:52:13 435.000/436.395/437.385
PRISM 21 Nov 09:57:12 10:01:19 75° 257° (WSW) 10:05:30 437.425
PCSat 21 Nov 09:59:22 10:04:34 47° 244° (WSW) 10:09:43 145.827
FO-29 21 Nov 10:03:29 10:07:06 15° 280° (W) 10:10:53 435.910
DUCHIFAT 1 21 Nov 10:14:11 10:16:55 17° 62° (ENE) 10:19:40 145.980
EO-88 21 Nov 10:17:07 10:20:46 70° 101° (E) 10:24:25 145.990 - 145.960
Max Valier Satellite 21 Nov 10:18:12 10:21:53 79° 284° (WNW) 10:25:33 145.860
EO-79 21 Nov 10:20:24 10:23:50 24° 65° (ENE) 10:27:16 145.935-145.965
HO-68 21 Nov 10:20:57 10:24:02 13° 318° (NW) 10:27:06 435.675
NANOSAT C BR1 21 Nov 10:23:52 10:27:14 24° 65° (ENE) 10:30:37 145.865
AIST 2D 21 Nov 10:27:04 10:30:30 69° 75° (ENE) 10:33:58 435.315
UNISAT 6 21 Nov 10:31:29 10:34:14 16° 270° (W) 10:36:57 437.425
POLYITAN 1 21 Nov 10:35:12 10:39:00 33° 68° (ENE) 10:42:49 437.675
TIGRISAT 21 Nov 10:35:57 10:38:39 15° 270° (W) 10:41:19 435.000
BEESAT 2 21 Nov 10:37:10 10:39:58 18° 33° (NNE) 10:42:45 435.950
LO-87 21 Nov 10:42:59 10:45:31 18° 93° (E) 10:48:01 145.935 - 145.965
DELFI C3 21 Nov 10:44:05 10:47:39 31° 292° (WNW) 10:51:12 145.870
FALCONSAT 3 21 Nov 10:54:44 10:55:55 11° 169° (S) 10:57:06 435.103
QB50P2 21 Nov 10:58:01 11:02:13 63° 73° (ENE) 11:06:26 145.880/145.840
BEESAT 3 21 Nov 11:03:12 11:07:09 62° 50° (NE) 11:11:01 437.485
BUGSAT 1 21 Nov 11:07:38 11:10:16 17° 62° (ENE) 11:12:54 437.445
Gurwin Techsat 1B 21 Nov 11:15:20 11:17:26 12° 52° (NE) 11:19:32 435.225
AO-85 21 Nov 11:24:03 11:27:44 24° 37° (NE) 11:31:37 145.980
SPROUT 21 Nov 11:40:38 11:43:14 16° 90° (E) 11:45:49 437.525
AO-7 21 Nov 11:43:59 11:47:28 13° 34° (NNE) 11:50:56 .
DUCHIFAT 1 21 Nov 11:48:02 11:52:11 55° 259° (W) 11:56:20 145.980
EO-88 21 Nov 11:52:47 11:53:52 11° 300° (WNW) 11:54:58 145.990 - 145.960
EO-79 21 Nov 11:55:29 11:59:25 36° 263° (W) 12:03:22 145.935-145.965
ESTCUBE 1 21 Nov 11:55:48 12:00:22 84° 105° (ESE) 12:04:54 437.505/2401.250
NANOSAT C BR1 21 Nov 11:58:48 12:02:45 38° 263° (W) 12:06:43 145.865
POLYITAN 1 21 Nov 12:11:14 12:14:49 26° 265° (W) 12:18:24 437.675
BEESAT 2 21 Nov 12:14:10 12:18:15 86° 232° (SW) 12:22:14 435.950
LO-87 21 Nov 12:15:48 12:19:01 33° 290° (WNW) 12:22:12 145.935 - 145.965
O/OREOS (USA 219) 21 Nov 12:16:23 12:16:51 10° 96° (E) 12:17:18 437.305
VELOX 1 21 Nov 12:17:24 12:21:04 24° 94° (E) 12:24:43 145.980
M-CUBED/EXP-1 PRIME 21 Nov 12:22:22 12:24:16 14° 52° (NE) 12:26:15 437.505
Oscar 19 21 Nov 12:27:05 12:32:05 58° 70° (ENE) 12:37:07 437.125/150
FALCONSAT 3 21 Nov 12:32:25 12:34:09 13° 185° (S) 12:35:53 435.103
QB50P2 21 Nov 12:36:08 12:38:25 14° 271° (W) 12:40:42 145.880/145.840
BUGSAT 1 21 Nov 12:41:04 12:45:12 57° 259° (W) 12:49:20 437.445
BEESAT 3 21 Nov 12:41:53 12:44:12 15° 249° (WSW) 12:46:31 437.485
Gurwin Techsat 1B 21 Nov 12:51:09 12:56:25 68° 72° (ENE) 13:01:43 435.225
DX 1 21 Nov 13:03:43 13:06:43 18° 92° (E) 13:09:40 434.975-435.025
AO-85 21 Nov 13:03:56 13:08:34 73° 235° (SW) 13:13:33 145.980
SPROUT 21 Nov 13:15:18 13:19:29 55° 288° (WNW) 13:23:37 437.525
AO-7 21 Nov 13:30:28 13:38:05 43° 57° (ENE) 13:45:46 .
ESTCUBE 1 21 Nov 13:34:16 13:36:31 14° 302° (WNW) 13:38:46 437.505/2401.250
UKube-1 21 Nov 13:45:23 13:49:11 29° 96° (E) 13:52:56 .
O/OREOS (USA 219) 21 Nov 13:50:50 13:55:26 84° 112° (ESE) 14:00:04 437.305
VELOX 1 21 Nov 13:53:28 13:57:37 39° 292° (WNW) 14:01:45 145.980
M-CUBED/EXP-1 PRIME 21 Nov 13:54:31 13:58:05 67° 253° (WSW) 14:01:59 437.505
50 SAT 21 Nov 14:04:24 14:07:39 86° 285° (WNW) 14:10:51 437.505
Oscar 19 21 Nov 14:07:59 14:11:46 21° 269° (W) 14:15:35 437.125/150
ITAMSAT 1 21 Nov 14:19:30 14:24:23 42° 67° (ENE) 14:29:18 435.822/435.867
Gurwin Techsat 1B 21 Nov 14:33:13 14:36:52 19° 270° (W) 14:40:32 435.225
DX 1 21 Nov 14:38:54 14:43:12 52° 289° (WNW) 14:47:27 434.975-435.025
BEESAT 21 Nov 14:39:39 14:42:48 17° 91° (E) 14:45:57 436.000
YUBILEINY 21 Nov 14:46:09 14:52:21 20° 55° (NE) 14:58:29 435.215
AO-85 21 Nov 14:47:04 14:48:18 11° 252° (WSW) 14:49:33 145.980
ITUPSAT 1 21 Nov 14:49:01 14:52:36 21° 92° (E) 14:56:09 437.325
NO-84 21 Nov 14:59:12 15:02:20 26° 132° (SE) 15:05:39 435.350 FM
DOVE 4 21 Nov 14:59:21 15:02:55 19° 59° (ENE) 15:06:33 437.250
MOZHAYETS 4 21 Nov 15:01:11 15:05:24 35° 97° (E) 15:09:35
CUBESAT XI-V 21 Nov 15:14:11 15:16:19 13° 87° (E) 15:18:29 437.345
UKube-1 21 Nov 15:21:20 15:25:11 31° 294° (WNW) 15:29:00 .
AO-7 21 Nov 15:22:41 15:30:42 53° 258° (WSW) 15:38:50 .
O/OREOS (USA 219) 21 Nov 15:32:37 15:35:29 16° 314° (NW) 15:38:23 437.305
CUTE-I 21 Nov 15:54:09 15:57:02 15° 54° (NE) 15:59:56 437.470
ITAMSAT 1 21 Nov 15:59:25 16:03:58 30° 265° (W) 16:08:33 435.822/435.867
BEESAT 21 Nov 16:16:17 16:20:59 61° 289° (WNW) 16:25:40 436.000
KAITUO 1B 21 Nov 16:17:45 16:19:03 12° 61° (ENE) 16:20:21 145.475/437.950
ITUPSAT 1 21 Nov 16:26:05 16:30:42 51° 290° (WNW) 16:35:18 437.325
XW-2D 21 Nov 16:31:01 16:33:55 22° 66° (ENE) 16:36:51 145.860 - 145.880
DOVE 4 21 Nov 16:34:55 16:39:58 73° 258° (WSW) 16:45:16 437.250
NO-84 21 Nov 16:35:36 16:39:24 61° 332° (NNW) 16:43:29 435.350 FM
MOZHAYETS 4 21 Nov 16:38:33 16:42:26 28° 295° (WNW) 16:46:19
YUBILEINY 21 Nov 16:41:55 16:50:50 78° 79° (E) 16:59:40 435.215
XW-2B 21 Nov 16:45:25 16:48:40 29° 69° (ENE) 16:51:58 145.730 - 145.750
CUBESAT XI-V 21 Nov 16:49:34 16:54:16 80° 286° (WNW) 16:58:58 437.345
KKS-1 21 Nov 16:52:55 16:56:45 27° 95° (E) 17:00:33 437.445
NUDT-PHONESAT 21 Nov 17:00:01 17:03:14 30° 69° (ENE) 17:06:28 437.300
XW-2C 21 Nov 17:10:32 17:14:12 58° 74° (ENE) 17:17:54 145.795 - 145.815
LilacSat-2 21 Nov 17:12:36 17:16:19 66° 74° (ENE) 17:20:04 437.200
HO-68 21 Nov 17:15:19 17:21:50 39° 60° (ENE) 17:28:24 435.675
STARS 21 Nov 17:17:14 17:20:31 20° 93° (E) 17:23:47 437.465
CUTE 1.7 + AOD 2 21 Nov 17:17:36 17:20:39 20° 63° (ENE) 17:23:43 437.475
XW-2F 21 Nov 17:21:06 17:24:48 72° 75° (ENE) 17:28:32 145.980 - 146.000
CUTE-I 21 Nov 17:30:53 17:36:16 82° 73° (ENE) 17:41:41 437.470
UWE-3 21 Nov 17:36:50 17:38:39 12° 59° (ENE) 17:40:26 435.000/436.395/437.385
RS-15 21 Nov 17:37:18 17:47:33 33° 104° (ESE) 17:57:43 29.354- 29.394
SEEDS 21 Nov 17:47:26 17:50:48 24° 66° (ENE) 17:54:13 437.485
KAITUO 1B 21 Nov 17:48:51 17:52:30 68° 259° (W) 17:56:12 145.475/437.950
AAUSAT CUBESAT 2 21 Nov 17:55:10 17:57:23 14° 60° (ENE) 17:59:36 437.432
XW-2D 21 Nov 18:04:35 18:07:56 31° 264° (W) 18:11:20 145.860 - 145.880
CUBEBUG 2 21 Nov 18:13:41 18:18:01 44° 71° (ENE) 18:22:15 437.445
NO-84 21 Nov 18:13:49 18:17:21 29° 353° (N) 18:21:03 435.350 FM
AO-73 21 Nov 18:17:10 18:19:31 15° 61° (ENE) 18:21:50 145.935
DOVE 4 21 Nov 18:18:01 18:18:36 10° 277° (W) 18:19:11 437.250
XW-2B 21 Nov 18:19:52 18:22:52 23° 266° (W) 18:25:54 145.730 - 145.750
XW-2A 21 Nov 18:20:28 18:23:05 22° 68° (ENE) 18:25:44 145.665 - 145.685
CUBESAT XI-V 21 Nov 18:29:07 18:30:52 12° 304° (NW) 18:32:37 437.345
KKS-1 21 Nov 18:29:16 18:33:21 35° 293° (WNW) 18:37:23 437.445
Oscar 11 21 Nov 18:33:17 18:35:44 15° 60° (ENE) 18:38:12 .
NUDT-PHONESAT 21 Nov 18:34:16 18:37:06 21° 266° (W) 18:39:59 437.300
YUBILEINY 21 Nov 18:39:50 18:46:41 26° 281° (W) 18:53:32 435.215
XW-2C 21 Nov 18:47:17 18:48:45 12° 271° (W) 18:50:14 145.795 - 145.815
LilacSat-2 21 Nov 18:50:11 18:51:02 11° 272° (W) 18:51:53 437.200
CUTE 1.7 + AOD 2 21 Nov 18:52:08 18:56:10 46° 261° (W) 19:00:15 437.475
STARS 21 Nov 18:52:52 18:57:05 45° 290° (WNW) 19:01:16 437.465
ZACube-1 21 Nov 19:00:20 19:04:23 41° 70° (ENE) 19:08:22 437.345
HO-68 21 Nov 19:02:28 19:09:25 50° 260° (W) 19:16:25 435.675
UWE-3 21 Nov 19:10:02 19:14:29 86° 252° (WSW) 19:18:51 435.000/436.395/437.385
CUTE-I 21 Nov 19:13:50 19:16:58 15° 272° (W) 19:20:06 437.470
FO-29 21 Nov 19:21:10 19:26:32 20° 84° (E) 19:31:43 435.910
SEEDS 21 Nov 19:22:30 19:26:20 35° 263° (W) 19:30:12 437.485
STRAND 1 21 Nov 19:25:32 19:30:28 45° 99° (E) 19:35:20 437.568
AAUSAT CUBESAT 2 21 Nov 19:28:13 19:32:18 67° 259° (WSW) 19:36:28 437.432
RS-15 21 Nov 19:46:24 19:58:48 85° 308° (NW) 20:11:05 29.354- 29.394
AO-73 21 Nov 19:50:59 19:55:16 68° 259° (WSW) 19:59:28 145.935
CUBEBUG 2 21 Nov 19:51:17 19:54:49 22° 267° (W) 19:58:17 437.445
NO-84 21 Nov 19:51:46 19:55:33 33° 14° (NNE) 19:59:27 435.350 FM
XW-2A 21 Nov 19:52:58 19:55:42 24° 265° (W) 19:58:28 145.665 - 145.685
DELFI C3 21 Nov 19:57:46 20:00:51 22° 65° (ENE) 20:03:57 145.870
Oscar 11 21 Nov 20:07:06 20:11:22 67° 259° (W) 20:15:40 .
nSIGHT-1 21 Nov 20:24:32 20:26:41 17° 137° (SE) 20:28:51 .
ZACube-1 21 Nov 20:37:31 20:40:49 21° 267° (W) 20:44:05 437.345
EO-88 21 Nov 20:57:17 21:00:44 45° 72° (ENE) 21:04:13 145.990 - 145.960
Max Valier Satellite 21 Nov 20:59:25 21:03:03 70° 75° (ENE) 21:06:42 145.860
FO-29 21 Nov 21:04:43 21:12:40 84° 104° (ESE) 21:20:11 435.910
STRAND 1 21 Nov 21:05:08 21:09:26 28° 297° (WNW) 21:13:42 437.568
ISS 21 Nov 21:08:28 21:11:26 32° 143° (SE) 21:14:23 437.550
LO-87 21 Nov 21:22:34 21:24:24 14° 63° (ENE) 21:26:15 145.935 - 145.965
ESTCUBE 1 21 Nov 21:23:46 21:26:16 15° 59° (ENE) 21:28:47 437.505/2401.250
NO-84 21 Nov 21:29:05 21:33:20 87° 31° (NNE) 21:37:37 435.350 FM
DELFI C3 21 Nov 21:31:44 21:35:24 36° 263° (W) 21:39:06 145.870
PRISM 21 Nov 21:37:02 21:38:43 12° 89° (E) 21:40:24 437.425
